Location: Eurasberg
(48.3353°N, 11.0839°E)
Time: 14:09:36
(UTC+00:00)

Timation 1 Rocket - Pass Details

Date: 25 April 2026
Orbit: 895 x 908 km, 70.0° (Epoch: 14 May)

Event Time Altitude Azimuth Distance (km) Brightness Sun altitude
Exits shadow 01:31:14 - 283° (WNW) 2,920 6.8 -21.4°
Reaches altitude 10° 01:32:38 10° 293° (WNW) 2,598 6.6 -21.2°
Maximum altitude 01:36:12 16° 330° (NNW) 2,203 6.6 -20.9°
Drops below altitude 10° 01:39:47 10° 7° (N) 2,604 7.6 -20.5°
Sets 01:43:25 0° 29° (NNE) 3,547 8.9 -20.1°
